Regional Weather Roundup
Issued by NWS

Home | Current Version | Previous Version | Text Only | Print | Product List | Glossary On
Versions: 1 2 3 4 5 6 7 8 9 10 11 12 13 14 15 16 17 18 19 20 21 22 23 24 25 26 27 28 29 30 31 32 33 34 35 36 37 38 39 40 41 42 43 44 45 46 47 48 49 50
000
ASUS43 KTOP 172359
RWRKS

WEATHER ROUNDUP FOR KANSAS
NATIONAL WEATHER SERVICE GOODLAND KS
700 PM CDT WED SEP 17 2014

NOTE:  "FAIR" INDICATES FEW OR NO CLOUDS BELOW 12,000 FEET WITH NO
SIGNIFICANT WEATHER AND/OR OBSTRUCTIONS TO VISIBILITY.

KSZ001>006-013>018-027>032-041>047-180100-
NORTHWEST KANSAS

CITY           SKY/WX    TMP DP  RH WIND       PRES   REMARKS
GOODLAND       PTCLDY    79  59  50 S7        29.92F
6HR MIN TEMP:  75; 6HR MAX TEMP:  91; 6HR PCP:  0.01;

HAYS           CLEAR     82  66  57 E12       29.85R
HILL CITY      PTCLDY    81  65  58 E13       29.87R
6HR MIN TEMP:  76; 6HR MAX TEMP:  89;

RUSSELL        CLEAR     82  68  62 E13       29.83S
6HR MIN TEMP:  80; 6HR MAX TEMP:  87;

$$

KSZ061>065-074>080-084>089-180100-
SOUTHWEST KANSAS

CITY           SKY/WX    TMP DP  RH WIND       PRES   REMARKS
DODGE CITY     MOCLDY    88  52  29 S10       29.85S
6HR MIN TEMP:  86; 6HR MAX TEMP:  96;

ELKHART          N/A     80  58  46 S7          N/A
GARDEN CITY    MOCLDY    84  55  36 S5        29.86F
6HR MIN TEMP:  83; 6HR MAX TEMP:  93;

GREAT BEND     CLEAR     88  66  48 E12       29.81S
LIBERAL        CLOUDY    84  59  42 SW13G18   29.91R
$$

KSZ066>073-081>083-090>101-180100-
SOUTHEAST KANSAS

CITY           SKY/WX    TMP DP  RH WIND       PRES   REMARKS
CHANUTE        CLEAR     82  73  74 E8        29.85R
6HR MIN TEMP:  82; 6HR MAX TEMP:  91;

COFFEYVILLE    CLEAR     88  71  57 SE3       29.82R
6HR MIN TEMP:  87; 6HR MAX TEMP:  91;

HUTCHINSON     PTCLDY    87  66  49 E14       29.80F
6HR MIN TEMP:  87; 6HR MAX TEMP:  95;

NEWTON         PTCLDY    82  66  57 E10G17    29.86S
PARSONS        CLEAR     86  72  62 CALM      29.84S
6HR MIN TEMP:  86; 6HR MAX TEMP:  91;

WICHITA INTL   PTCLDY    92  59  33 SE9       29.79F
6HR MIN TEMP:  92; 6HR MAX TEMP:  98;

WICHITA JABRA  CLEAR     89  61  38 MISG      29.80F
6HR MIN TEMP:  89; 6HR MAX TEMP:  96;

WINFIELD       PTCLDY    86  64  47 SE7       29.82S
6HR MIN TEMP:  86; 6HR MAX TEMP:  95;

$$

KSZ007>012-019>026-033>040-048>060-102>105-180100-
NORTHEAST KANSAS

CITY           SKY/WX    TMP DP  RH WIND       PRES   REMARKS
CONCORDIA      CLEAR     76  67  73 E7        29.88S
6HR MIN TEMP:  73; 6HR MAX TEMP:  79;

EMPORIA        CLEAR     76  67  73 NE12      29.86F
6HR MIN TEMP:  76; 6HR MAX TEMP:  81;

LAWRENCE       CLOUDY    72  65  78 E6        29.89S
6HR MIN TEMP:  72; 6HR MAX TEMP:  76;

MANHATTAN      CLEAR     75  67  76 E8        29.87S
6HR MIN TEMP:  72; 6HR MAX TEMP:  80;

OLATHE IND     CLOUDY    71  65  81 E6        29.91R
6HR MIN TEMP:  71; 6HR MAX TEMP:  76;

OLATHE EXE     CLOUDY    70  65  84 E6        29.90R
6HR MIN TEMP:  70; 6HR MAX TEMP:  74;

SALINA         CLEAR     83  68  60 E10       29.84S
6HR MIN TEMP:  82; 6HR MAX TEMP:  87;

TOPEKA BILLARD CLEAR     73  68  84 E6        29.89R
6HR MIN TEMP:  73; 6HR MAX TEMP:  77;

TOPEKA FORBES  CLEAR     72  66  81 E5        29.89S
6HR MIN TEMP:  72; 6HR MAX TEMP:  76;

$$



USA.gov is the U.S. government's official web portal to all federal, state and local government web resources and services.